Pontiac, MI

5:56 PM EST on November 16, 2019 (GMT -0500)
Oakland County International

Weather History for KPTK - June, 2019

Change the Weather History Date:

Wednesday, June 12, 2019

  Actual Average Record
Temperature  
Mean Temperature 65 °F -  
Max Temperature 73 °F 74 °F 91 °F (1999)
Min Temperature 57 °F 54 °F 46 °F (2006)
Growing Degree Days 15 (Base 50)    
Moisture  
Dew Point 49 °F    
Average Humidity 59    
Maximum Humidity 93    
Minimum Humidity 31    
Precipitation  
Precipitation 0.47 in - - ()
Sea Level Pressure  
Sea Level Pressure 29.92 in    
Wind  
Wind Speed 7 mph (South)    
Max Wind Speed 14 mph    
Max Gust Speed 22 mph    
Visibility 9 miles    
Events Rain , Thunderstorm    
Averages and records for this station are not official NWS values.
T = Trace of Precipitation, MM = Missing Value Source: NWS Daily Summary

Daily Weather History Graph

Daily Weather History Graph

Search for Another Location

Airport or City:

Astronomy

Jun. 12, 2019 Rise Set
Actual Time 5:55 AM EDT 9:11 PM EDT
Civil Twilight 5:20 AM EDT 9:46 PM EDT
Nautical Twilight 4:35 AM EDT 10:32 PM EDT
Astronomical Twilight 3:40 AM EDT 11:27 PM EDT
Moon 4:10 PM EDT (6/12) 3:17 AM EDT (6/12)
Length of Visible Light 16h 26m
Length of Day
15h 16m
Waxing Gibbous, 76% of the Moon is Illuminated
Jun 12
Waxing Gibbous
Jun 17
Full
Jun 25
Last Quarter
Jul 2
New
Jul 9
First Quarter

Hourly Weather History & Observations

Time (EDT) Temp. Dew Point Humidity Pressure Visibility Wind Dir Wind Speed Gust Speed Precip Events Conditions
12:53 AM 62.1 °F 50.0 °F 65% 30.09 in 10.0 mi SSE 5.8 mph - N/A   Clear
1:53 AM 61.0 °F 53.1 °F 75% 30.08 in 10.0 mi SSE 4.6 mph - N/A   Clear
2:53 AM 60.1 °F 54.0 °F 80% 30.06 in 10.0 mi SSE 4.6 mph - N/A   Clear
3:53 AM 60.1 °F 54.0 °F 80% 30.06 in 10.0 mi SSE 6.9 mph - N/A   Clear
4:53 AM 59.0 °F 52.0 °F 78% 30.05 in 10.0 mi South 3.5 mph - N/A   Clear
5:53 AM 57.9 °F 51.1 °F 78% 30.05 in 10.0 mi SSE 3.5 mph - N/A   Mostly Cloudy
6:53 AM 59.0 °F 52.0 °F 78% 30.05 in 10.0 mi SSE 5.8 mph - N/A   Overcast
7:53 AM 62.1 °F 51.1 °F 67% 30.04 in 10.0 mi South 6.9 mph - N/A   Overcast
8:53 AM 64.9 °F 48.9 °F 56% 30.03 in 10.0 mi South 8.1 mph - N/A   Mostly Cloudy
9:53 AM 66.9 °F 50.0 °F 54% 30.02 in 10.0 mi SSW 10.4 mph 18.4 mph N/A   Mostly Cloudy
10:53 AM 70.0 °F 51.1 °F 51% 30.00 in 10.0 mi SSW 11.5 mph - N/A   Mostly Cloudy
11:53 AM 72.0 °F 51.1 °F 48% 29.98 in 10.0 mi SSW 11.5 mph - N/A   Mostly Cloudy
12:53 PM 73.0 °F 48.9 °F 42% 29.95 in 10.0 mi South 9.2 mph - N/A   Mostly Cloudy
1:53 PM 73.9 °F 48.0 °F 40% 29.92 in 10.0 mi South 11.5 mph 18.4 mph N/A   Mostly Cloudy
2:53 PM 73.9 °F 45.0 °F 35% 29.91 in 10.0 mi SSE 13.8 mph 21.9 mph N/A   Mostly Cloudy
3:53 PM 73.0 °F 44.1 °F 35% 29.90 in 10.0 mi South 10.4 mph - N/A   Overcast
4:53 PM 73.0 °F 43.0 °F 34% 29.87 in 10.0 mi SSE 10.4 mph - N/A   Overcast
5:53 PM 72.0 °F 39.9 °F 31% 29.85 in 10.0 mi SE 8.1 mph - N/A   Overcast
6:53 PM 72.0 °F 43.0 °F 35% 29.82 in 10.0 mi SSE 6.9 mph - N/A   Mostly Cloudy
7:53 PM 71.1 °F 45.0 °F 39% 29.81 in 10.0 mi SE 9.2 mph - N/A   Overcast
8:53 PM 69.1 °F 46.9 °F 45% 29.79 in 10.0 mi East 9.2 mph - N/A   Overcast
9:53 PM 68.0 °F 45.0 °F 43% 29.77 in 10.0 mi East 8.1 mph - N/A   Overcast
10:09 PM 66.9 °F 45.0 °F 45% 29.77 in 10.0 mi East 8.1 mph - N/A Thunderstorm Thunderstorm
10:53 PM 62.1 °F 51.1 °F 67% 29.79 in 5.0 mi SW 12.7 mph - 0.01 in Rain , Thunderstorm Light Thunderstorms and Rain
11:04 PM 57.9 °F 54.0 °F 87% 29.79 in 1.5 mi West 5.8 mph - 0.17 in Rain , Thunderstorm Heavy Thunderstorms and Rain
11:16 PM 57.9 °F 55.0 °F 90% 29.79 in 3.0 mi West 8.1 mph - 0.22 in Rain , Thunderstorm Thunderstorms and Rain
11:45 PM 57.0 °F 55.0 °F 93% 29.79 in 2.5 mi West 4.6 mph - 0.39 in Rain Rain
11:53 PM 57.0 °F 55.0 °F 93% 29.79 in 2.0 mi West 6.9 mph - 0.46 in Rain Rain